#timestamp,LO_Frequency,Hit,StdDev 
1522850415.3,286047000.4,N
1522850435.1,286047000.4,N
1522850455.9,286047000.2,N
1522850475.7,286047001.2,N
1522850495.5,286046999.2,N
1522850515.4,286046999.2,N
1522850535.2,286046998.5,N
1522850555.1,286046998.3,N
1522850556.0,286046998.3,N
1522850575.8,286047000.4,N
1522850595.6,286047002.8,N
1522850615.5,286047002.6,N
1522850635.3,286047001.9,N
1522850655.1,286047000.1,N
1522850675.9,286047000.3,N
1522850695.7,286047000.8,N
1522850715.6,286047001.0,N
1522850735.4,286047000.7,N
1522850755.2,286047000.3,N
1522850775.1,286047002.7,N
1522850776.0,286047002.7,N
1522850795.8,286047002.4,N
1522850815.7,286046999.7,N
1522850835.5,286047000.4,N
1522850855.3,286047000.7,N
1522850875.2,286046998.7,N
1522850895.0,286047000.9,N
1522850895.9,286047000.9,N
1522850915.8,286047002.4,N
1522850935.6,286047001.5,N
1522850955.4,286047003.9,N
1522850975.3,286047004.0,N
1522850995.1,286047004.4,N
1522851015.9,286047002.3,N
1522851035.7,286047002.3,N
1522851055.5,286047002.4,N
1522851075.4,286046999.8,N
1522851095.2,286047000.2,N
1522851115.0,286047001.4,N
1522851115.9,286047001.4,N
1522851135.8,286047001.9,N
1522851155.6,286047001.8,N
1522851175.5,286047001.8,N
1522851195.3,286047002.6,N
1522851215.1,286047002.8,N
1522851235.9,286047000.6,N
1522851255.7,286046998.8,N
1522851275.6,286047000.3,N
1522851295.4,286047002.3,N
1522851315.2,286047000.3,N
1522851335.1,286047000.0,N
1522851336.0,286047000.0,N
1522851355.8,286047001.1,N
1522851375.7,286047001.2,N
1522851395.5,286046998.4,N
1522851415.3,286046999.4,N
1522851435.2,286046998.5,N
1522851455.0,286047001.1,N
1522851455.9,286047001.1,N
1522851475.7,286046998.1,N
1522851495.6,286047000.1,N
1522851515.4,286047000.2,N
1522851535.3,286047000.8,N
1522851555.1,286047000.2,N
1522851575.8,286046999.9,N
1522851595.7,286046999.7,N
1522851615.5,286047002.8,N
1522851635.4,286047000.0,N
1522851655.2,286046999.9,N
1522851675.0,286047001.1,N
1522851675.9,286047001.1,N
1522851695.8,286047000.5,N
1522851715.6,286047001.0,N
1522851735.5,286046998.2,N
1522851755.3,286047000.0,N
1522851775.1,286047001.1,N
1522851795.9,286047000.7,N
1522851815.7,286047000.3,N
1522851835.5,286047000.9,N
1522851855.4,286047002.8,N
1522851875.2,286047002.5,N
1522851895.1,286047002.5,N
1522851896.0,286047002.5,N
1522851915.8,286047002.5,N
1522851935.6,286047002.0,N
1522851955.5,286047000.9,N
1522851975.3,286047001.2,N
1522851995.2,286047000.4,N
1522852015.9,286047002.1,N
1522852035.7,286046999.7,N
1522852055.6,286047002.7,N
1522852075.4,286046998.4,N
1522852095.2,286046998.6,N
1522852115.1,286047001.1,N
1522852116.0,286047001.1,N
1522852135.8,286047000.2,N
1522852155.7,286046999.7,N
1522852175.5,286046999.7,N
1522852195.3,286047001.1,N
1522852215.2,286047000.0,N
1522852235.0,286047000.4,N
1522852235.9,286047000.4,N
1522852255.8,286047001.1,N
1522852275.6,286046998.8,N
1522852295.4,286046999.5,N
1522852315.3,286046999.5,N
1522852335.1,286046997.5,N
1522852355.9,286046994.9,Y
1522852375.7,286046995.7,P
1522852395.5,286046995.2,N
1522852415.4,286046995.4,N
1522852435.2,286046995.5,N
1522852455.0,286046996.4,N
1522852455.9,286046996.4,N
1522852475.8,286046993.3,Y
1522852495.6,286046999.4,P
1522852515.5,286046999.3,N
1522852535.3,286046999.4,N
1522852555.1,286046999.2,N
1522852575.9,286046999.5,N
1522852595.7,286046999.3,N
1522852615.6,286046997.3,N
1522852635.4,286046995.4,Y
1522852655.2,286046996.8,P
1522852675.1,286046999.6,N
1522852676.0,286046999.6,N
1522852695.8,286046996.9,N
1522852715.7,286046996.6,N
1522852735.5,286046999.4,N
1522852755.3,286046999.1,N
1522852775.2,286046999.3,N
1522852795.0,286046996.6,N
1522852795.9,286046996.6,N
1522852815.8,286046997.4,N
1522852835.6,286046999.5,N
1522852855.4,286046997.1,N
1522852875.3,286046995.8,Y
1522852895.1,286046995.6,P
1522852915.8,286046995.7,P
1522852935.7,286046996.2,P
1522852955.5,286046994.2,Y
1522852975.4,286046999.0,P
1522852995.2,286046999.3,N
1522853015.0,286046998.2,N
1522853015.9,286046998.2,N
1522853035.8,286046998.7,N
1522853055.6,286046999.2,N
1522853075.5,286046997.8,N
1522853095.3,286046997.1,Y
1522853115.1,286046999.1,P
1522853135.9,286047000.8,N
1522853155.7,286046999.8,N
1522853175.6,286047002.4,N
1522853195.4,286046999.9,N
1522853215.2,286047000.3,N
1522853235.1,286046998.4,N
1522853236.0,286046998.4,N
1522853255.8,286047001.0,N
1522853275.6,286046999.9,N
1522853295.5,286047001.4,N
1522853315.3,286047000.1,N
1522853335.2,286047000.5,N
1522853355.9,286047000.8,N
1522853375.7,286046998.9,N
1522853395.6,286046999.5,N
1522853415.4,286046996.9,N
1522853435.2,286046997.3,N
1522853455.1,286046997.0,N
1522853456.0,286046997.0,N
1522853475.8,286046997.0,N
1522853495.7,286046997.3,N
1522853515.5,286046996.9,N
1522853535.4,286046999.5,N
1522853555.2,286046997.0,N
1522853575.0,286046996.6,N
1522853575.9,286046996.6,N
1522853595.8,286046999.4,N
1522853615.6,286046998.1,N
1522853635.5,286046997.0,N
1522853655.3,286046997.7,N
1522853675.1,286046997.0,N
1522853695.9,286046999.2,N
1522853715.7,286046999.2,N
1522853735.6,286046999.0,N
1522853755.4,286046997.3,N
1522853775.2,286046997.6,N
1522853795.1,286046995.3,Y
1522853796.0,286046995.3,P
1522853815.8,286046996.9,N
1522853835.7,286046998.9,N
1522853855.5,286047000.3,N
1522853875.3,286047002.6,N
1522853895.2,286047002.2,N
1522853915.0,286047004.3,N
1522853915.9,286047004.3,N
1522853935.7,286047001.7,N
1522853955.6,286047002.8,N
1522853975.4,286047002.5,N
1522853995.3,286047000.1,N
